Location: Clarks Summit,Pa.
(41.5000°N, 75.6000°W)
Time: 03:00:05
(UTC-05:00)

BlueWalker 3 - Pass Details

Date: 06 December 2022
Orbit: 499 x 517 km, 53.2° (Epoch: 07 February)

Event Time Altitude Azimuth Distance (km) Brightness Sun altitude
Rises 17:44:09 0° 311° (NW) 2,629 6.0 -13.1°
Reaches altitude 10° 17:46:48 10° 328° (NNW) 1,737 4.8 -13.5°
Maximum altitude 17:49:48 20° 18° (NNE) 1,210 3.5 -14.1°
Enters shadow 17:50:38 19° 36° (NE) 1,257 3.5 -14.2°
